RH
45 45 50 55 49 42 54 59 66 66 63 67 68 59 55 37 37 36 37 39 44 53 55 55 56 60 60 58 55 53 57 63 87 74 69 62 67 54 50 48 45 43 48
26 26 26 28 34 39 65 64 61 57 59 68 62 66 60 38 36 37 40 47 51 54 57 64 61 58 56 53 51 61 71 73 83 77 70 68 62 59 53 50 42 45 48
25 26 26 25 30 39 43 48 53 57 65 64 76 72 49 38 38 43 48 52 55 63 66 65 66 65 63 57 63 74 82 84 84 84 80 72 67 60 60 52 44 40 42
25 24 27 36 45 47 47 52 64 67 76 75 78 64 43 46 48 51 54 60 66 68 68 78 77 73 70 75 75 76 87 96 99 98 98 86 73 70 61 54 55 51 45
26 29 37 48 56 54 50 61 82 79 88 89 64 57 63 54 55 58 65 68 74 79 86 84 83 82 80 76 78 84 89 91 96 96 95 97 95 71 64 59 65 63 55
30 34 42 47 51 55 63 71 78 88 91 74 76 62 59 60 65 66 80 89 92 97 99 96 88 84 82 82 86 87 88 93 98 97 91 93 95 76 66 67 71 76 83
31 38 50 55 56 59 61 76 80 86 91 88 62 63 62 60 64 80 96 93 94 97 92 78 86 86 91 95 95 94 95 97 96 98 99 94 92 89 84 80 79 78 81
36 54 55 55 57 58 63 69 76 72 84 71 68 62 61 62 72 88 93 86 84 79 78 92 95 97 97 94 98 94 87 87 83 92 97 92 84 81 82 87 84 88 90
48 53 55 57 64 68 65 63 72 63 66 72 65 58 58 60 64 88 86 88 86 82 95 87 94 94 96 97 98 97 97 90 86 89 89 92 97 100 98 96 90 93 87
49 54 55 62 64 58 57 52 49 56 67 65 60 61 62 64 66 86 86 88 87 98 90 89 96 94 97 96 96 98 100 91 93 91 85 85 79 74 81 89 83 96 89
52 55 58 61 58 56 56 54 55 68 66 63 64 65 70 70 70 88 87 87 92 98 98 96 97 98 97 98 98 96 98 98 97 98 98 95 93 93 83 74 71 74 92
62 61 61 62 62 62 57 56 67 64 65 68 69 72 76 74 70 80 94 90 89 97 92 94 97 92 98 97 97 98 98 95 95 94 95 96 96 96 97 97 97 98 97
68 69 67 69 69 68 64 64 67 69 70 73 74 80 79 77 72 86 95 95 94 87 88 95 93 92 95 88 100 100 93 95 96 95 96 96 97 96 96 97 97 98 100
66 71 75 75 69 72 74 68 70 72 75 78 78 82 84 79 76 91 96 89 81 88 77 76 79 75 80 85 84 92 92 97 97 98 97 96 95 95 96 97 96 97 98
76 85 88 98 78 74 74 73 83 83 77 81 83 84 87 84 81 98 88 87 81 88 74 76 84 84 89 96 85 88 89 91 98 97 98 96 96 96 96 96 97 97 97
82 86 99 98 94 82 82 88 90 81 84 88 86 84 87 87 90 89 89 87 84 75 77 91 94 92 95 100 99 96 91 86 94 96 96 96 96 96 96 96 96 97 96
92 89 98 98 97 94 90 85 76 75 82 82 78 80 88 89 94 87 90 84 79 74 76 88 94 95 91 100 100 100 96 68 81 95 96 96 96 96 96 96 96 95 96
91 90 99 98 98 98 90 85 80 74 82 80 82 81 88 87 90 87 88 77 80 78 80 81 92 92 88 93 99 98 87 55 71 93 95 95 95 97 96 96 96 92 84
100 94 99 96 94 94 91 82 86 90 82 88 88 87 89 92 93 83 82 81 89 84 85 87 81 89 90 80 90 84 76 51 56 85 95 95 95 95 95 96 94 94 84
96 99 99 95 84 83 95 92 92 97 86 84 84 84 92 94 92 91 93 91 89 86 87 86 90 82 84 81 70 71 54 42 38 51 90 93 93 91 97 94 96 86 83
100 98 98 94 81 87 90 98 97 95 84 74 80 88 94 98 90 95 95 95 94 87 86 88 90 91 82 85 75 72 78 56 40 38 75 94 93 85 94 86 95 80 72
91 98 97 88 80 82 77 79 88 98 94 88 79 85 87 95 91 95 95 92 91 88 89 93 92 93 88 82 81 78 86 64 37 36 53 88 90 85 89 86 89 82 74
90 99 98 93 90 80 82 78 80 88 96 95 86 84 83 92 96 97 90 89 88 86 89 93 90 88 92 82 79 79 88 70 36 34 55 87 86 86 81 86 85 85 78
100 100 99 97 88 76 78 80 76 84 93 90 88 88 86 85 88 87 92 92 93 86 88 91 91 87 89 89 80 76 86 66 36 33 65 89 92 83 82 81 79 77 76
100 99 99 96 89 83 88 80 78 83 86 90 86 91 93 85 85 88 87 86 89 90 88 91 92 91 87 90 85 81 91 85 42 38 52 77 89 85 74 80 69 76 76
100 99 98 97 92 87 94 95 93 92 80 80 90 90 94 83 84 86 83 85 87 90 90 92 93 91 87 90 88 93 94 87 59 50 51 58 80 81 64 91 79 81 85
Wind_Speed
7 10 12 15 18 22 22 22 13 11 8 10 8 12 19 13 9 11 13 15 14 11 12 14 17 18 19 22 23 24 24 19 13 18 21 24 17 11 13 16 16 16 12
9 12 13 13 16 20 19 14 14 17 23 18 15 16 18 15 11 14 14 13 13 11 14 17 21 21 21 21 23 23 22 22 21 19 20 21 18 18 15 16 15 12 12
10 13 16 19 18 16 17 18 19 22 22 18 19 22 15 14 14 15 13 12 11 14 18 21 21 19 21 24 24 25 23 21 21 21 21 22 21 16 17 15 14 14 13
13 16 16 14 14 15 17 18 21 19 18 17 21 17 12 19 15 12 10 12 15 20 21 21 19 20 21 24 25 23 19 19 19 17 17 17 17 17 13 12 12 12 15
11 11 11 10 10 14 19 19 18 19 16 19 9 10 19 13 8 8 12 18 20 21 22 21 21 20 22 22 21 20 23 19 18 12 12 12 11 12 12 9 9 12 15
11 11 11 11 13 14 16 15 14 18 15 9 15 15 4 4 8 12 16 17 18 21 23 22 23 21 21 22 23 22 22 22 17 15 13 13 13 12 12 13 10 6 2
14 14 11 12 13 15 17 15 16 14 11 9 6 2 4 7 10 12 13 15 17 18 20 23 23 20 22 23 22 23 23 19 19 20 18 17 14 18 13 14 13 11 9
14 11 11 15 16 18 17 16 12 8 12 4 3 2 6 9 10 11 13 15 17 21 21 19 21 22 21 22 24 25 20 18 16 15 18 21 23 21 20 19 17 15 15
9 11 13 15 18 18 19 18 12 8 4 5 1 4 8 9 11 10 13 17 20 20 17 21 18 20 20 24 20 21 19 19 18 16 17 18 13 9 15 16 15 12 11
11 13 15 17 14 15 18 8 2 3 4 3 2 5 6 8 11 11 13 16 18 17 22 20 17 18 22 22 18 21 16 19 18 19 16 14 15 17 18 17 17 14 12
14 18 17 12 13 14 11 10 8 7 6 1 3 3 4 8 11 11 14 15 18 18 18 19 20 20 20 18 17 18 17 15 13 14 14 14 11 10 13 16 18 22 18
20 20 14 11 10 9 7 3 6 6 4 2 3 3 4 7 11 12 14 15 17 16 18 18 19 19 17 16 17 18 14 14 14 13 11 11 10 10 9 9 11 15 19
22 19 12 9 9 7 5 7 7 5 2 3 4 4 4 7 11 12 14 14 14 15 15 14 15 16 15 15 16 16 16 17 16 15 13 12 12 11 9 7 8 11 15
18 12 9 8 9 7 7 6 6 3 4 4 5 5 6 8 11 14 14 15 16 16 14 12 15 16 14 15 17 17 18 19 18 16 15 13 13 13 10 7 8 7 9
16 15 13 10 7 6 3 6 3 4 6 6 6 6 7 8 10 13 13 14 15 14 12 12 16 19 19 18 19 19 20 21 21 20 18 16 15 14 13 12 9 5 2
16 19 17 7 7 5 6 6 5 6 7 6 8 7 7 7 9 10 9 10 12 12 9 12 15 17 18 15 18 19 20 21 20 19 18 17 16 16 14 14 12 10 11
17 19 14 9 8 8 8 9 7 8 7 5 5 6 7 6 7 7 6 8 10 11 9 10 11 13 16 14 16 15 17 18 16 16 17 18 17 16 15 15 14 12 11
16 16 14 11 11 14 11 11 10 7 7 7 6 6 6 6 6 6 7 9 9 9 9 9 9 10 13 12 14 15 17 17 16 15 16 18 18 15 15 16 13 13 11
17 14 13 10 13 12 10 12 11 9 8 9 9 8 7 8 8 7 7 9 8 8 8 8 9 9 10 11 11 13 14 16 14 13 15 16 16 16 16 14 14 11 11
18 15 12 10 8 11 12 12 14 11 9 10 12 10 9 9 10 9 9 9 9 8 7 8 8 9 9 10 10 12 14 15 15 14 13 14 15 14 14 14 13 13 12
19 15 14 11 12 14 13 15 16 13 11 12 13 11 11 12 12 11 10 11 10 9 8 8 8 9 9 9 10 9 12 14 13 13 12 12 13 14 12 12 10 9 11
22 20 15 15 15 14 13 13 13 15 18 14 11 10 11 13 14 13 12 10 9 9 9 9 9 8 9 9 9 9 10 13 13 12 11 11 11 12 12 11 10 9 12
23 22 19 18 16 16 16 15 15 17 16 18 15 14 14 14 15 15 12 10 9 9 9 10 9 9 8 8 9 9 9 13 12 11 10 10 11 11 11 11 10 10 11
21 18 18 17 17 16 17 19 18 16 18 19 20 18 15 13 12 12 11 10 10 9 10 10 10 10 9 9 9 8 8 11 11 10 8 9 9 10 9 8 8 8 9
21 17 19 19 19 22 23 22 23 21 21 21 20 21 19 15 14 14 13 12 11 11 10 10 10 10 10 9 9 8 9 10 10 8 8 8 8 9 7 7 8 7 7
21 20 19 21 23 24 25 26 28 27 24 24 22 22 18 16 16 15 14 13 13 12 12 11 11 11 10 9 9 8 8 9 9 9 9 8 7 8 7 5 6 6 5
Wind_Direction
354 348 347 344 339 329 308 296 283 272 259 255 253 288 291 270 269 286 299 306 296 284 284 289 299 309 310 309 309 306 299 285 272 283 281 290 273 273 283 301 318 326 334
28 9 0 350 348 345 341 308 292 282 270 249 245 286 284 267 282 293 293 280 285 286 289 301 306 308 306 312 313 304 292 287 274 277 279 267 268 276 289 299 306 314 331
5 358 357 352 352 354 348 332 305 291 273 251 289 302 283 287 297 282 282 286 288 299 303 306 305 307 309 312 312 302 293 287 280 276 274 269 264 262 281 286 291 298 301
350 347 342 339 343 350 344 324 302 281 287 298 304 303 294 309 283 283 287 298 306 307 308 307 302 306 304 309 305 299 299 304 288 276 277 270 258 261 262 274 283 298 306
330 322 319 322 329 331 333 321 302 297 292 302 310 307 295 287 289 300 311 311 311 309 307 307 306 305 299 301 300 298 300 291 295 294 289 267 250 246 248 258 265 297 301
298 293 299 314 328 322 315 310 311 297 297 282 300 288 260 311 319 315 318 310 306 308 309 310 312 310 306 304 298 293 291 291 288 286 282 283 256 247 256 258 263 280 300
290 277 292 313 321 320 322 309 313 308 310 310 272 185 340 335 326 314 311 311 314 316 317 318 316 310 309 310 305 300 290 288 282 282 273 264 267 282 273 271 263 257 242
291 288 302 320 317 316 314 312 313 303 300 260 182 336 345 344 335 328 319 323 323 326 328 325 313 313 316 313 310 313 307 297 298 299 292 272 268 271 268 265 269 272 276
290 297 312 314 302 309 313 310 306 300 205 175 350 351 347 342 344 338 330 331 334 334 331 329 325 323 323 321 325 322 299 297 301 292 285 283 295 251 258 252 253 250 258
304 306 311 306 307 313 314 305 299 310 217 213 348 342 342 345 352 347 343 340 340 335 335 336 333 330 328 328 328 327 297 302 303 307 302 295 284 274 263 255 258 255 263
309 306 304 299 308 313 308 290 279 197 172 188 333 324 337 353 354 357 356 350 343 335 336 333 338 334 337 344 347 353 352 334 320 312 299 306 298 280 264 256 252 247 239
311 297 292 295 310 309 314 278 173 182 190 262 296 295 324 352 358 359 355 352 344 339 339 337 340 338 342 348 348 350 354 359 0 1 355 343 335 324 298 272 256 250 249
316 297 277 297 307 306 299 222 201 195 229 264 271 295 320 349 1 358 356 353 353 348 346 338 339 345 351 357 355 4 13 7 358 351 341 339 337 330 317 295 266 260 263
325 308 292 303 306 303 288 239 205 213 252 270 283 295 318 345 357 1 360 356 351 350 355 355 359 3 9 9 16 21 18 9 2 354 346 349 345 343 339 333 301 271 254
326 311 283 290 293 310 253 200 236 278 267 282 303 295 308 333 356 349 349 350 353 344 348 4 10 9 8 3 8 13 14 11 5 3 360 360 1 9 13 17 13 36 52
320 327 308 265 262 263 235 239 270 287 278 284 291 294 305 321 348 340 348 350 357 349 360 13 12 10 5 356 359 1 6 5 5 7 9 13 8 9 18 24 27 44 54
316 315 301 275 258 247 252 246 250 301 303 290 304 300 288 307 325 337 341 348 359 4 14 8 9 10 3 359 360 4 358 360 1 12 17 20 18 26 26 25 28 26 29
309 308 289 285 283 251 259 255 259 263 292 308 303 303 283 281 315 320 325 342 350 6 9 358 351 356 2 360 1 4 3 7 11 14 19 22 22 25 23 20 29 26 16
301 299 292 277 287 246 260 254 257 254 285 291 299 296 293 273 295 302 310 328 328 336 345 348 349 342 347 354 352 359 2 5 11 17 20 20 20 23 22 22 18 20 18
313 295 275 272 255 234 258 261 259 248 270 286 290 290 292 282 286 295 300 306 309 311 320 327 336 340 335 346 349 356 1 3 5 9 13 16 16 16 14 10 10 9 9
312 289 275 252 261 264 275 270 258 250 259 282 282 286 280 274 286 288 294 291 295 297 301 309 319 329 331 334 342 347 358 360 359 1 3 7 10 9 5 4 2 5 5
308 290 261 257 270 267 265 267 270 262 261 263 281 280 277 269 278 282 284 291 290 289 293 296 304 311 324 319 328 333 342 351 351 352 356 357 0 2 2 2 4 9 8
304 292 252 254 266 268 262 264 268 267 269 257 267 272 273 275 278 268 278 283 280 282 284 286 294 297 308 314 314 323 328 339 344 342 343 348 353 355 358 358 360 1 5
309 292 257 256 262 269 266 265 272 272 268 265 262 260 265 269 268 268 270 274 271 277 273 278 283 287 294 303 307 312 318 330 339 336 332 336 341 346 349 351 360 357 355
310 290 266 261 268 272 269 268 266 269 267 266 263 257 253 259 264 267 266 267 264 270 272 271 275 280 285 287 299 302 307 318 327 327 324 325 326 337 335 346 350 2 7
309 294 278 272 273 278 276 273 271 265 265 264 263 261 246 258 261 263 262 263 260 266 267 263 269 275 276 276 288 292 298 310 317 317 319 318 317 325 337 323 350 3 9